Погода в Молоденках

Россия / Тульская область     53°43′45″N   38°54′05″E
темп.,
°C
ветер,
м/с
пор.,
м/с
влажн.,
%
обл.,
%
осадки,
мм/ч
давл.,
гПа
погр.,
м
18 мая, вт
вт1800:00+18юв6166914 0.0 1009332
03:00+16вюв615703 0.0 1009266
06:00+15вюв51276100 0.0 1009237
09:00+20юв6126328 0.0 1009446
12:00+24юв7105011 0.0 1009776
15:00+25вюв7125446 0.0 10071263
18:00+23вюв7156484 0.0 1006678
21:00+18юв488375 0.0 1007128
19 мая, ср
ср1900:00+16ю368632 0.3 100898
03:00+15вюв2291100 0.3 100834
06:00+16юв248896 0.0 1008107
09:00+20в126693 0.0 1007676
12:00+22вюв346599 0.0 10061164
15:00+21ююв676978 2.4 10061017
18:00+21ююв467480 0.8 1006764
21:00+17юв4784100 1.1 1007109
20 мая, чт
чт2000:00+15ююв368873 0.0 1007137
03:00+13юв51096100 0.0 1007325
06:00+14ююв5109046 0.0 1008619
09:00+16ююв687658 0.2 1008996
12:00+18ююв6866100 0.8 10081431
15:00+19ю686340 2.2 10071411
18:00+17ю57765 1.3 1007862
21:00+13ююз411915 1.9 1008312
21 мая, пт
пт2100:00+12ююз511957 0.0 1009406
03:00+12юз7138774 0.1 1010860
06:00+9юз6128890 0.0 1012725
09:00+13юз8137218 0.0 10141138
12:00+13ююз71174100 0.0 10161056
15:00+16зюз6966100 0.1 10161528
18:00+15з477199 0.0 1018611
21:00+12сз2282100 0.0 101923
22 мая, сб
сб2200:00+11св2281100 0.0 102038
03:00+10св3692100 0.8 1019178
06:00+10св5996100 1.6 1019328
09:00+12св7991100 1.7 1019420
12:00+15всв6789100 0.0 1017580
15:00+18всв5682100 0.0 1015448
18:00+18ссв4589100 0.1 1015199
21:00+15ссв4797100 0.1 1015158